User: anonymous   Login
Location: Unspecified
(0.0000°N, 0.0000°E)
Time: 17:25:21
(UTC+02:00)
Language:

AO-7 - Orbit

View from above orbital plane
View from above orbital plane
View from above satellite
View from above satellite

Ground track
Ground track

The orbit data is extracted from the following two-line orbital elements,

1 07530U 74089B   16149.90484515 -.00000018  00000-0  16202-3 0  9994
2 07530 101.5727 121.1316 0012018 350.9192  66.7465 12.53621461900707
Epoch (UTC): 28 May 2016 21:42:58
Eccentricity: 0.0012018
inclination: 101.5727°
perigee height: 1440 km
apogee height: 1459 km
right ascension of ascending node: 121.1316°
argument of perigee: 350.9192°
revolutions per day: 12.53621461
mean anomaly at epoch: 66.7465°
orbit number at epoch: 90070

The dashed part of the orbit path shows where the satellite is in the earth's shadow,  

DLR